Погода в Карнарвоне

Австралия     24°52′59″S   113°39′27″E
темп.,
°C
ветер,
м/с
пор.,
м/с
влажн.,
%
обл.,
%
осадки,
мм/ч
давл.,
гПа
погр.,
м
14 мая, пт
пт1423:00+27юв453966 0.0 101551
02:00+25юв45415 0.0 101461
05:00+24вюв45400 0.0 101452
08:00+24всв46440 0.0 101692
11:00+29св67381 0.0 1016522
14:00+31с55330 0.0 10141507
17:00+28з44503 0.0 1014218
20:00+26ю22620 0.0 101639
15 мая, сб
сб1523:00+26ююв33510 0.0 101723
02:00+24всв34384 0.0 101647
05:00+24всв5123898 0.0 1016199
08:00+23всв61438100 0.0 1018312
11:00+28св81028100 0.0 1017685
14:00+30св5625100 0.0 10151345
17:00+29всв3427100 0.0 1015210
20:00+26в4634100 0.0 101694
16 мая, вс
вс1623:00+25в593589 0.0 1016133
02:00+24всв4739100 0.0 1015122
05:00+23св464136 0.0 1016102
08:00+22св5104297 0.0 1017220
11:00+28ссв793045 0.0 1017750
14:00+29с56285 0.0 10141456
17:00+26з66445 0.0 1015304
20:00+25з345799 0.0 101670
17 мая, пн
пн1723:00+24ююз225878 0.0 101618
02:00+24ю3357100 0.0 101524
05:00+22вюв225291 0.0 101514
08:00+23вюв22455 0.0 101625
11:00+26з01345 0.0 1016486
14:00+28з22322 0.0 10131205
17:00+25юз55435 0.0 1014225
20:00+24юз45555 0.0 1016138
18 мая, вт
вт1823:00+23ю34615 0.0 101680
02:00+22ююв45675 0.0 101591
05:00+22ююв4460100 0.0 101588
08:00+22юв3450100 0.0 1016116
11:00+25ю224246 0.0 1016412
14:00+27ююз434164 0.0 1014807
17:00+25ююз56475 0.0 1014268
20:00+24ю58565 0.0 1015189